TimeCST,TemperatureF,Dew PointF,Humidity,Sea Level PressureIn,VisibilityMPH,Wind Direction,Wind SpeedMPH,Gust SpeedMPH,PrecipitationIn,Events,Conditions,WindDirDegrees,DateUTC
12:15 AM,33.8,33.8,100,29.79,9.0,Calm,Calm,-,N/A,,Overcast,0,2013-02-22 06:15:00
12:35 AM,33.8,33.8,100,29.80,9.0,Calm,Calm,-,N/A,,Overcast,0,2013-02-22 06:35:00
12:55 AM,33.8,33.8,100,29.80,9.0,SW,8.1,-,N/A,,Overcast,230,2013-02-22 06:55:00
1:15 AM,33.8,33.8,100,29.81,8.0,SW,9.2,-,N/A,,Overcast,230,2013-02-22 07:15:00
1:35 AM,33.8,32.0,93,29.80,10.0,SW,10.4,-,N/A,,Overcast,230,2013-02-22 07:35:00
1:55 AM,33.8,32.0,93,29.81,9.0,SW,10.4,-,N/A,,Overcast,230,2013-02-22 07:55:00
2:15 AM,33.8,32.0,93,29.80,6.0,SW,8.1,-,N/A,,Overcast,230,2013-02-22 08:15:00
2:35 AM,33.8,32.0,93,29.80,9.0,SW,8.1,-,N/A,,Overcast,230,2013-02-22 08:35:00
2:55 AM,33.8,32.0,93,29.81,10.0,WSW,18.4,24.2,N/A,,Overcast,240,2013-02-22 08:55:00
3:15 AM,32.0,28.4,87,29.82,9.0,WSW,20.7,26.5,N/A,,Overcast,240,2013-02-22 09:15:00
3:35 AM,30.2,28.4,93,29.83,10.0,SW,16.1,21.9,N/A,,Overcast,230,2013-02-22 09:35:00
3:55 AM,30.2,28.4,93,29.84,5.0,SW,17.3,21.9,N/A,,Overcast,230,2013-02-22 09:55:00
4:15 AM,28.4,28.4,100,29.84,5.0,SW,13.8,24.2,N/A,,Overcast,230,2013-02-22 10:15:00
4:35 AM,28.4,28.4,100,29.85,1.8,SW,15.0,21.9,N/A,,Freezing Rain,230,2013-02-22 10:35:00
4:55 AM,28.4,28.4,100,29.86,3.0,WSW,15.0,19.6,N/A,,Overcast,240,2013-02-22 10:55:00
5:15 AM,28.4,28.4,100,29.86,2.5,WSW,15.0,-,N/A,,Overcast,240,2013-02-22 11:15:00
5:35 AM,28.4,28.4,100,29.87,7.0,West,13.8,-,N/A,,Overcast,270,2013-02-22 11:35:00
5:55 AM,28.4,26.6,93,29.88,10.0,West,13.8,19.6,N/A,,Overcast,270,2013-02-22 11:55:00
6:15 AM,28.4,26.6,93,29.89,10.0,West,13.8,-,N/A,,Overcast,270,2013-02-22 12:15:00
6:35 AM,28.4,24.8,86,29.90,10.0,West,17.3,21.9,N/A,,Overcast,260,2013-02-22 12:35:00
6:55 AM,28.4,21.2,74,29.91,10.0,West,13.8,20.7,N/A,,Overcast,280,2013-02-22 12:55:00
7:15 AM,26.6,21.2,80,29.93,10.0,West,15.0,-,N/A,,Overcast,280,2013-02-22 13:15:00
7:35 AM,26.6,21.2,80,29.94,10.0,West,10.4,-,N/A,,Overcast,270,2013-02-22 13:35:00
7:55 AM,26.6,21.2,80,29.96,10.0,West,9.2,-,N/A,,Overcast,270,2013-02-22 13:55:00
8:15 AM,26.6,21.2,80,29.97,9.0,West,11.5,-,N/A,,Overcast,260,2013-02-22 14:15:00
8:35 AM,26.6,21.2,80,29.98,9.0,West,13.8,-,N/A,,Overcast,260,2013-02-22 14:35:00
8:55 AM,26.6,21.2,80,29.99,9.0,West,11.5,-,N/A,,Overcast,260,2013-02-22 14:55:00
9:15 AM,26.6,21.2,80,30.00,9.0,WSW,11.5,-,N/A,,Overcast,250,2013-02-22 15:15:00
9:35 AM,26.6,21.2,80,30.01,8.0,WSW,12.7,-,N/A,,Overcast,240,2013-02-22 15:35:00
9:55 AM,26.6,21.2,80,30.01,8.0,SW,11.5,-,N/A,,Overcast,230,2013-02-22 15:55:00
10:15 AM,26.6,21.2,80,30.02,9.0,WSW,12.7,-,N/A,,Overcast,240,2013-02-22 16:15:00
10:35 AM,26.6,21.2,80,30.02,8.0,WSW,12.7,-,N/A,,Overcast,240,2013-02-22 16:35:00
10:55 AM,28.4,21.2,74,30.03,8.0,WSW,12.7,-,N/A,,Overcast,240,2013-02-22 16:55:00
11:15 AM,28.4,21.2,74,30.05,9.0,West,13.8,-,N/A,,Overcast,260,2013-02-22 17:15:00
11:35 AM,28.4,21.2,74,30.06,9.0,WSW,11.5,17.3,N/A,,Overcast,240,2013-02-22 17:35:00
11:55 AM,28.4,21.2,74,30.06,9.0,WSW,15.0,-,N/A,,Overcast,250,2013-02-22 17:55:00
12:15 PM,28.4,21.2,74,30.06,8.0,WSW,13.8,-,N/A,,Overcast,250,2013-02-22 18:15:00
12:35 PM,28.4,21.2,74,30.06,8.0,West,10.4,-,N/A,,Overcast,260,2013-02-22 18:35:00
12:55 PM,28.4,21.2,74,30.05,7.0,West,11.5,-,N/A,,Mostly Cloudy,270,2013-02-22 18:55:00
1:15 PM,28.4,21.2,74,30.05,7.0,West,13.8,-,N/A,,Mostly Cloudy,270,2013-02-22 19:15:00
1:35 PM,28.4,21.2,74,30.04,8.0,West,11.5,-,N/A,,Mostly Cloudy,280,2013-02-22 19:35:00
1:55 PM,28.4,21.2,74,30.04,8.0,West,8.1,-,N/A,,Overcast,270,2013-02-22 19:55:00
2:15 PM,30.2,21.2,69,30.04,8.0,West,9.2,-,N/A,,Mostly Cloudy,280,2013-02-22 20:15:00
2:35 PM,30.2,21.2,69,30.05,9.0,West,10.4,-,N/A,,Scattered Clouds,260,2013-02-22 20:35:00
2:55 PM,30.2,21.2,69,30.05,8.0,SW,12.7,-,N/A,,Partly Cloudy,230,2013-02-22 20:55:00
3:15 PM,30.2,21.2,69,30.05,8.0,WSW,11.5,-,N/A,,Partly Cloudy,240,2013-02-22 21:15:00
3:35 PM,30.2,21.2,69,30.05,9.0,WSW,12.7,-,N/A,,Clear,240,2013-02-22 21:35:00
3:55 PM,30.2,21.2,69,30.05,9.0,West,11.5,-,N/A,,Clear,270,2013-02-22 21:55:00
4:15 PM,30.2,21.2,69,30.05,8.0,WSW,10.4,-,N/A,,Partly Cloudy,240,2013-02-22 22:15:00
4:35 PM,30.2,21.2,69,30.05,8.0,WSW,10.4,-,N/A,,Partly Cloudy,240,2013-02-22 22:35:00
4:55 PM,30.2,21.2,69,30.05,8.0,WSW,10.4,-,N/A,,Partly Cloudy,250,2013-02-22 22:55:00
5:15 PM,30.2,21.2,69,30.05,8.0,West,8.1,-,N/A,,Clear,260,2013-02-22 23:15:00
5:35 PM,30.2,21.2,69,30.06,8.0,West,11.5,-,N/A,,Clear,260,2013-02-22 23:35:00
5:55 PM,30.2,21.2,69,30.06,8.0,West,8.1,-,N/A,,Clear,270,2013-02-22 23:55:00
6:15 PM,28.4,21.2,74,30.06,8.0,West,6.9,-,N/A,,Clear,270,2013-02-23 00:15:00
6:35 PM,28.4,19.4,69,30.06,10.0,West,6.9,-,N/A,,Clear,270,2013-02-23 00:35:00
6:55 PM,28.4,19.4,69,30.07,10.0,West,5.8,-,N/A,,Clear,270,2013-02-23 00:55:00
7:15 PM,26.6,19.4,74,30.07,10.0,WSW,5.8,-,N/A,,Clear,250,2013-02-23 01:15:00
7:35 PM,26.6,19.4,74,30.07,7.0,West,6.9,-,N/A,,Clear,260,2013-02-23 01:35:00
7:55 PM,26.6,19.4,74,30.08,10.0,West,5.8,-,N/A,,Clear,260,2013-02-23 01:55:00
8:15 PM,24.8,19.4,80,30.07,6.0,West,6.9,-,N/A,,Haze,270,2013-02-23 02:15:00
8:35 PM,23.0,19.4,86,30.08,7.0,WSW,4.6,-,N/A,,Clear,250,2013-02-23 02:35:00
8:55 PM,23.0,17.6,80,30.08,10.0,WSW,4.6,-,N/A,,Clear,250,2013-02-23 02:55:00
9:15 PM,23.0,17.6,80,30.08,8.0,WSW,6.9,-,N/A,,Clear,250,2013-02-23 03:15:00
9:35 PM,23.0,17.6,80,30.09,7.0,West,5.8,-,N/A,,Clear,260,2013-02-23 03:35:00
9:55 PM,23.0,17.6,80,30.09,7.0,West,5.8,-,N/A,,Clear,260,2013-02-23 03:55:00
10:15 PM,23.0,17.6,80,30.08,6.0,West,6.9,-,N/A,,Haze,270,2013-02-23 04:15:00
10:35 PM,23.0,17.6,80,30.08,8.0,West,6.9,-,N/A,,Clear,260,2013-02-23 04:35:00
10:55 PM,21.2,17.6,86,30.09,7.0,WSW,5.8,-,N/A,,Clear,250,2013-02-23 04:55:00
11:15 PM,21.2,17.6,86,30.09,6.0,West,5.8,-,N/A,,Haze,260,2013-02-23 05:15:00
11:35 PM,21.2,15.8,80,30.09,8.0,WSW,4.6,-,N/A,,Clear,240,2013-02-23 05:35:00
11:55 PM,21.2,17.6,86,30.09,8.0,SW,4.6,-,N/A,,Clear,230,2013-02-23 05:55:00